TG5ALY-15 Weather Reports


time (UTC)temp
F
wind
direction
speed
knots
gust
knots
rain 1hr
in
rain 24hr
in
rain mn
in
humidity
%
barometer
mb
20260507123351 58 156 2.6 2.6 0.00 0.00 0.00 87 1030.8
20260507121346 57 156 1.7 1.7 0.00 0.00 0.00 87 1030.4
20260507115343 57 156 1.7 1.7 0.00 0.00 0.00 87 1030.4
20260507113343 57 156 0.0 0.0 0.00 0.00 0.00 88 1029.9
20260507111343 57 156 0.0 0.0 0.00 0.00 0.00 90 1029.9
20260507105340 57 156 0.0 0.0 0.00 0.00 0.00 88 1029.9
20260507103338 57 156 0.0 0.0 0.00 0.00 0.00 91 1029.5
20260507101333 57 156 0.0 0.0 0.00 0.00 0.00 89 1029.5
20260507095334 57 156 0.9 0.9 0.00 0.00 0.00 90 1029.2
20260507093329 57 162 1.7 1.7 0.00 0.00 0.00 90 1029.9
20260507091327 57 166 1.7 1.7 0.00 0.00 0.00 89 1029.9
20260507085325 57 174 2.6 3.5 0.00 0.00 0.00 89 1029.9
20260507083324 57 18 1.7 1.7 0.00 0.00 0.00 90 1029.9
20260507081320 57 18 0.0 0.0 0.00 0.00 0.00 91 1029.9
20260507075317 57 18 1.7 1.7 0.00 0.00 0.00 92 1030.4
20260507073317 57 18 1.7 1.7 0.00 0.00 0.00 90 1030.8
20260507071317 58 18 0.0 0.0 0.00 0.00 0.00 92 1030.8
20260507065316 57 18 1.7 1.7 0.00 0.00 0.00 91 1030.8
20260507063312 57 18 1.7 1.7 0.00 0.00 0.00 92 1030.8
20260507061307 58 18 0.0 0.0 0.00 0.00 0.00 92 1031.3
20260507055306 58 18 0.9 0.9 0.00 0.00 0.00 91 1031.7
20260507053305 58 18 1.7 1.7 0.00 0.00 0.00 88 1032.1
20260507051301 58 18 0.0 0.0 0.00 0.00 0.00 93 1031.7
20260507045259 58 18 0.0 0.0 0.00 0.00 0.00 94 1031.7
20260507043258 59 18 0.0 0.0 0.00 0.00 0.00 93 1031.7
20260507041255 60 18 0.0 0.0 0.00 0.00 0.00 93 1031.7
20260507035252 60 18 0.0 0.0 0.00 0.00 0.00 92 1031.7
20260507033248 60 18 0.0 0.0 0.00 0.00 0.00 93 1031.3
20260507031247 60 18 0.0 0.0 0.00 0.00 0.00 92 1030.8
20260507025246 61 18 1.7 1.7 0.00 0.00 0.00 92 1030.8
20260507023246 61 18 1.7 1.7 0.00 0.00 0.00 92 1030.8
20260507021242 61 18 0.0 0.0 0.00 0.00 0.00 91 1030.8
20260507015237 61 18 0.0 0.0 0.00 0.00 0.00 92 1030.4
20260507013235 61 18 1.7 1.7 0.00 0.00 0.00 91 1030.8
20260507011234 62 336 4.3 5.2 0.00 0.00 0.00 90 1030.4
20260507005228 63 324 0.0 0.0 0.00 0.00 0.00 88 1029.9
20260507003226 63 324 0.0 0.0 0.00 0.00 0.00 86 1029.9
20260507001224 64 324 5.2 5.2 0.00 0.00 0.00 84 1029.5
20260506235220 66 270 2.6 2.6 0.00 0.00 0.00 79 1029.2
20260506233220 67 126 1.7 1.7 0.00 0.00 0.00 75 1028.7
20260506231220 67 138 5.2 5.2 0.00 0.00 0.00 75 1028.7
20260506225218 68 138 5.2 6.1 0.00 0.00 0.00 73 1028.7
20260506223216 73 156 1.7 1.7 0.00 0.00 0.00 60 1028.3
20260506221210 72 321 0.9 0.9 0.00 0.00 0.00 63 1027.9
20260506215206 71 282 0.9 0.9 0.00 0.00 0.00 63 1028.3
20260506213202 69 144 3.5 4.3 0.00 0.00 0.00 68 1028.3
20260506211158 70 138 6.1 6.1 0.00 0.00 0.00 68 1028.3
20260506205155 73 165 9.6 10.4 0.00 0.00 0.00 62 1028.3
20260506203151 73 138 4.3 5.2 0.00 0.00 0.00 61 1028.3
20260506201150 75 179 7.8 9.6 0.00 0.00 0.00 56 1028.3
20260506195148 76 84 5.2 5.2 0.00 0.00 0.00 49 1028.7
20260506193143 78 60 1.7 1.7 0.00 0.00 0.00 46 1029.2
20260506191141 77 78 7.0 7.8 0.00 0.00 0.00 23 1029.2
20260506185140 78 108 5.2 6.1 0.00 0.00 0.00 25 1029.5
20260506183139 76 13 4.3 5.2 0.00 0.00 0.00 27 1029.9
20260506181134 75 60 4.3 5.2 0.00 0.00 0.00 28 1030.4
20260506175132 76 1 4.3 5.2 0.00 0.00 0.00 27 1030.4
20260506173127 75 343 6.1 7.0 0.00 0.00 0.00 25 1030.8
20260506171122 74 325 6.1 6.1 0.00 0.00 0.00 24 1030.8
20260506165122 74 120 6.1 7.0 0.00 0.00 0.00 24 1030.8
20260506163119 74 318 6.1 6.1 0.00 0.00 0.00 24 1030.8
20260506161116 73 351 8.7 9.6 0.00 0.00 0.00 29 1030.8
20260506155116 67 223 2.6 3.5 0.00 0.00 0.00 65 1031.7
20260506152433 66 234 0.0 0.0 0.00 0.00 0.00 66 1031.3
20260506150427 65 233 1.7 1.7 0.00 0.00 0.00 70 1031.7
20260506144426 63 78 1.7 1.7 0.00 0.00 0.00 72 1031.7
20260506142423 61 78 1.7 1.7 0.00 0.00 0.00 79 1031.7
20260506140419 60 78 1.7 1.7 0.00 0.00 0.00 80 1031.7
20260506134417 58 78 0.9 0.9 0.00 0.00 0.00 82 1031.3
20260506132416 56 78 0.0 0.0 0.00 0.00 0.00 85 1031.7
20260506130415 53 78 1.7 1.7 0.00 0.00 0.00 89 1031.3
20260506124412 54 78 0.0 0.0 0.00 0.00 0.00 86 1030.8